| time (UTC) | temp F | wind direction | speed MPH | gust MPH | rain 1hr in | rain 24hr in | rain mn in | humidity % | barometer mb |
| 20260902221004 | 80 | 245 | 6.0 | 15.0 | 0.00 | 0.00 | 0.00 | 45 | 1015.6 |
| 20260902220004 | 80 | 244 | 6.0 | 15.0 | 0.00 | 0.00 | 0.00 | 45 | 1015.7 |
| 20260902215004 | 80 | 257 | 6.0 | 16.0 | 0.00 | 0.00 | 0.00 | 46 | 1015.8 |
| 20260902214004 | 80 | 258 | 6.0 | 14.0 | 0.00 | 0.00 | 0.00 | 48 | 1015.9 |
| 20260902212004 | 80 | 245 | 6.0 | 13.0 | 0.00 | 0.00 | 0.00 | 50 | 1015.8 |
| 20260902211035 | 80 | 243 | 6.0 | 13.0 | 0.00 | 0.00 | 0.00 | 52 | 1015.9 |
| 20260902210046 | 80 | 236 | 5.0 | 11.0 | 0.00 | 0.00 | 0.00 | 52 | 1016.0 |
| 20260902205025 | 80 | 245 | 6.0 | 14.0 | 0.00 | 0.00 | 0.00 | 51 | 1016.0 |
| 20260902204025 | 80 | 243 | 5.0 | 12.0 | 0.00 | 0.00 | 0.00 | 50 | 1016.1 |
| 20260902203004 | 80 | 241 | 5.0 | 11.0 | 0.00 | 0.00 | 0.00 | 51 | 1016.0 |
| 20260902201004 | 79 | 249 | 6.0 | 12.0 | 0.00 | 0.00 | 0.00 | 54 | 1016.3 |
| 20260902200004 | 79 | 235 | 5.0 | 14.0 | 0.00 | 0.00 | 0.00 | 52 | 1016.4 |
| 20260902195004 | 79 | 247 | 6.0 | 13.0 | 0.00 | 0.00 | 0.00 | 51 | 1016.5 |
| 20260902194004 | 79 | 240 | 5.0 | 12.0 | 0.00 | 0.00 | 0.00 | 51 | 1016.7 |
| 20260902193004 | 79 | 252 | 4.0 | 12.0 | 0.00 | 0.00 | 0.00 | 54 | 1016.8 |
| 20260902192004 | 79 | 251 | 5.0 | 12.0 | 0.00 | 0.00 | 0.00 | 54 | 1016.8 |
| 20260902191004 | 79 | 258 | 5.0 | 11.0 | 0.00 | 0.00 | 0.00 | 56 | 1016.7 |
| 20260902185025 | 79 | 240 | 4.0 | 10.0 | 0.00 | 0.00 | 0.00 | 55 | 1016.8 |
| 20260902184025 | 79 | 244 | 3.0 | 10.0 | 0.00 | 0.00 | 0.00 | 52 | 1016.6 |
| 20260902182004 | 79 | 241 | 3.0 | 8.0 | 0.00 | 0.00 | 0.00 | 52 | 1016.8 |
| 20260902180006 | 77 | 244 | 4.0 | 9.0 | 0.00 | 0.00 | 0.00 | 55 | 1016.8 |
| 20260902175004 | 77 | 245 | 3.0 | 9.0 | 0.00 | 0.00 | 0.00 | 53 | 1016.9 |
| 20260902173025 | 77 | 244 | 3.0 | 7.0 | 0.00 | 0.00 | 0.00 | 53 | 1017.0 |
| 20260902172004 | 76 | 248 | 2.0 | 7.0 | 0.00 | 0.00 | 0.00 | 54 | 1016.9 |
| 20260902171004 | 76 | 255 | 2.0 | 6.0 | 0.00 | 0.00 | 0.00 | 56 | 1016.9 |
| 20260902170004 | 76 | 264 | 2.0 | 6.0 | 0.00 | 0.00 | 0.00 | 58 | 1016.8 |
| 20260902165024 | 75 | 188 | 1.0 | 5.0 | 0.00 | 0.00 | 0.00 | 58 | 1016.7 |
| 20260902164003 | 74 | 211 | 1.0 | 5.0 | 0.00 | 0.00 | 0.00 | 61 | 1016.7 |
| 20260902163022 | 74 | 171 | 1.0 | 5.0 | 0.00 | 0.00 | 0.00 | 60 | 1016.7 |
| 20260902162004 | 74 | 76 | 1.0 | 3.0 | 0.00 | 0.00 | 0.00 | 64 | 1016.7 |
| 20260902161003 | 73 | 66 | 1.0 | 2.0 | 0.00 | 0.00 | 0.00 | 65 | 1016.7 |
| 20260902160005 | 70 | 66 | 1.0 | 2.0 | 0.00 | 0.00 | 0.00 | 69 | 1016.7 |
| 20260902155040 | 67 | 66 | 1.0 | 3.0 | 0.00 | 0.00 | 0.00 | 74 | 1016.8 |
| 20260902154004 | 61 | 66 | 1.0 | 3.0 | 0.00 | 0.00 | 0.00 | 83 | 1016.8 |
| 20260902151024 | 58 | 66 | 1.0 | 3.0 | 0.00 | 0.00 | 0.00 | 84 | 1016.7 |
| 20260902150025 | 57 | 66 | 2.0 | 4.0 | 0.00 | 0.00 | 0.00 | 84 | 1016.8 |
| 20260902145025 | 57 | 66 | 3.0 | 5.0 | 0.00 | 0.00 | 0.00 | 84 | 1016.7 |
| 20260902144003 | 57 | 72 | 3.0 | 6.0 | 0.00 | 0.00 | 0.00 | 84 | 1016.6 |
| 20260902141003 | 56 | 61 | 3.0 | 8.0 | 0.00 | 0.00 | 0.00 | 85 | 1016.6 |
| 20260902140004 | 56 | 66 | 3.0 | 7.0 | 0.00 | 0.00 | 0.00 | 84 | 1016.6 |
| 20260902135024 | 56 | 68 | 3.0 | 5.0 | 0.00 | 0.00 | 0.00 | 85 | 1016.3 |
| 20260902134004 | 56 | 62 | 3.0 | 8.0 | 0.00 | 0.00 | 0.00 | 85 | 1016.1 |
| 20260902133003 | 56 | 65 | 3.0 | 6.0 | 0.00 | 0.00 | 0.00 | 84 | 1016.0 |
| 20260902132003 | 56 | 61 | 3.0 | 6.0 | 0.00 | 0.00 | 0.00 | 84 | 1016.1 |
| 20260902131004 | 56 | 66 | 3.0 | 5.0 | 0.00 | 0.00 | 0.00 | 84 | 1016.0 |
| 20260902130004 | 56 | 68 | 3.0 | 5.0 | 0.00 | 0.00 | 0.00 | 84 | 1016.0 |
| 20260902125003 | 57 | 76 | 3.0 | 6.0 | 0.00 | 0.00 | 0.00 | 84 | 1016.0 |
| 20260902124003 | 57 | 69 | 3.0 | 6.0 | 0.00 | 0.00 | 0.00 | 85 | 1016.0 |
| 20260902123003 | 57 | 63 | 3.0 | 7.0 | 0.00 | 0.00 | 0.00 | 85 | 1016.0 |
| 20260902122024 | 57 | 62 | 3.0 | 8.0 | 0.00 | 0.00 | 0.00 | 84 | 1016.0 |
| 20260902121003 | 57 | 67 | 4.0 | 8.0 | 0.00 | 0.00 | 0.00 | 84 | 1015.9 |
| 20260902120003 | 57 | 60 | 4.0 | 6.0 | 0.00 | 0.00 | 0.00 | 85 | 1015.8 |
| 20260902115003 | 57 | 55 | 4.0 | 9.0 | 0.00 | 0.00 | 0.00 | 84 | 1015.8 |
| 20260902113024 | 57 | 59 | 3.0 | 6.0 | 0.00 | 0.00 | 0.00 | 85 | 1015.9 |
| 20260902112024 | 57 | 60 | 2.0 | 5.0 | 0.00 | 0.00 | 0.00 | 84 | 1015.9 |
| 20260902111024 | 57 | 60 | 3.0 | 5.0 | 0.00 | 0.00 | 0.00 | 84 | 1016.0 |
| 20260902110005 | 57 | 60 | 3.0 | 6.0 | 0.00 | 0.00 | 0.00 | 84 | 1015.7 |
| 20260902105003 | 57 | 60 | 3.0 | 5.0 | 0.00 | 0.00 | 0.00 | 83 | 1015.7 |
| 20260902104003 | 57 | 65 | 3.0 | 7.0 | 0.00 | 0.00 | 0.00 | 83 | 1015.7 |
| 20260902103024 | 58 | 59 | 4.0 | 7.0 | 0.00 | 0.00 | 0.00 | 84 | 1015.6 |
| 20260902101004 | 58 | 71 | 3.0 | 6.0 | 0.00 | 0.00 | 0.00 | 84 | 1015.8 |
| 20260902100003 | 58 | 74 | 2.0 | 5.0 | 0.00 | 0.00 | 0.00 | 85 | 1015.8 |
| 20260902095003 | 58 | 75 | 2.0 | 4.0 | 0.00 | 0.00 | 0.00 | 85 | 1015.8 |
| 20260902094024 | 58 | 73 | 2.0 | 5.0 | 0.00 | 0.00 | 0.00 | 85 | 1015.9 |
| 20260902092003 | 58 | 74 | 2.0 | 5.0 | 0.00 | 0.00 | 0.00 | 85 | 1015.9 |
| 20260902091003 | 58 | 77 | 2.0 | 5.0 | 0.00 | 0.00 | 0.00 | 85 | 1015.9 |
| 20260902090004 | 58 | 79 | 3.0 | 6.0 | 0.00 | 0.00 | 0.00 | 85 | 1016.0 |
| 20260902085003 | 59 | 69 | 3.0 | 5.0 | 0.00 | 0.00 | 0.00 | 85 | 1016.1 |
| 20260902083003 | 59 | 69 | 2.0 | 6.0 | 0.00 | 0.00 | 0.00 | 84 | 1016.1 |
| 20260902082003 | 59 | 69 | 2.0 | 5.0 | 0.00 | 0.00 | 0.00 | 84 | 1016.1 |
| 20260902081003 | 59 | 82 | 2.0 | 5.0 | 0.00 | 0.00 | 0.00 | 83 | 1016.1 |
| 20260902080024 | 59 | 87 | 1.0 | 4.0 | 0.00 | 0.00 | 0.00 | 83 | 1016.0 |
| 20260902075003 | 60 | 87 | 1.0 | 4.0 | 0.00 | 0.00 | 0.00 | 83 | 1016.0 |
| 20260902074024 | 60 | 87 | 1.0 | 3.0 | 0.00 | 0.00 | 0.00 | 82 | 1016.1 |
| 20260902073003 | 60 | 87 | 2.0 | 3.0 | 0.00 | 0.00 | 0.00 | 82 | 1016.1 |
| 20260902072026 | 60 | 0 | 2.0 | 2.0 | 0.00 | 0.00 | 0.00 | 81 | 1016.0 |
| 20260902071006 | 61 | 0 | 1.0 | 1.0 | 0.00 | 0.00 | 0.00 | 81 | 1015.9 |
| 20260902070028 | 61 | 0 | 0.0 | 1.0 | 0.00 | 0.00 | 0.00 | 81 | 1016.0 |
| 20260902065005 | 61 | 0 | 0.0 | 2.0 | 0.00 | 0.00 | 0.00 | 81 | 1015.9 |
| 20260902064027 | 62 | 0 | 0.0 | 2.0 | 0.00 | 0.00 | 0.00 | 80 | 1016.0 |
| 20260902063006 | 62 | 0 | 0.0 | 2.0 | 0.00 | 0.00 | 0.00 | 80 | 1015.8 |
| 20260902062005 | 62 | 61 | 0.0 | 2.0 | 0.00 | 0.00 | 0.00 | 80 | 1015.7 |
| 20260902060026 | 63 | 61 | 2.0 | 3.0 | 0.00 | 0.00 | 0.00 | 80 | 1015.5 |
| 20260902055005 | 63 | 60 | 2.0 | 5.0 | 0.00 | 0.00 | 0.00 | 80 | 1015.4 |
| 20260902054006 | 63 | 342 | 2.0 | 4.0 | 0.00 | 0.00 | 0.00 | 79 | 1015.4 |
| 20260902053027 | 64 | 331 | 1.0 | 3.0 | 0.00 | 0.00 | 0.00 | 79 | 1015.5 |
| 20260902052006 | 64 | 331 | 1.0 | 4.0 | 0.00 | 0.00 | 0.00 | 78 | 1015.6 |
| 20260902050008 | 65 | 0 | 0.0 | 2.0 | 0.00 | 0.00 | 0.00 | 78 | 1015.4 |
| 20260902045005 | 66 | 0 | 0.0 | 0.0 | 0.00 | 0.00 | 0.00 | 77 | 1015.4 |
| 20260902044006 | 66 | 0 | 0.0 | 0.0 | 0.00 | 0.00 | 0.00 | 77 | 1015.3 |
| 20260902043006 | 67 | 0 | 0.0 | 0.0 | 0.00 | 0.00 | 0.00 | 77 | 1015.1 |
| 20260902042026 | 67 | 257 | 0.0 | 3.0 | 0.00 | 0.00 | 0.00 | 76 | 1015.1 |
| 20260902041026 | 67 | 257 | 1.0 | 3.0 | 0.00 | 0.00 | 0.00 | 75 | 1015.0 |
| 20260902035005 | 68 | 258 | 1.0 | 2.0 | 0.00 | 0.00 | 0.00 | 73 | 1014.9 |
| 20260902034005 | 68 | 260 | 1.0 | 4.0 | 0.00 | 0.00 | 0.00 | 72 | 1014.8 |
| 20260902032005 | 69 | 260 | 2.0 | 4.0 | 0.00 | 0.00 | 0.00 | 70 | 1014.8 |
| 20260902031005 | 69 | 263 | 2.0 | 5.0 | 0.00 | 0.00 | 0.00 | 69 | 1014.6 |
| 20260902030005 | 70 | 265 | 3.0 | 7.0 | 0.00 | 0.00 | 0.00 | 68 | 1014.5 |
| 20260902025005 | 70 | 270 | 2.0 | 7.0 | 0.00 | 0.00 | 0.00 | 68 | 1014.4 |
| 20260902024005 | 71 | 262 | 2.0 | 6.0 | 0.00 | 0.00 | 0.00 | 68 | 1014.4 |
| 20260902023005 | 71 | 259 | 3.0 | 9.0 | 0.00 | 0.00 | 0.00 | 67 | 1014.3 |
| 20260902022005 | 72 | 259 | 3.0 | 7.0 | 0.00 | 0.00 | 0.00 | 66 | 1014.4 |
| 20260902021005 | 73 | 259 | 3.0 | 8.0 | 0.00 | 0.00 | 0.00 | 64 | 1014.4 |
| 20260902020005 | 73 | 251 | 3.0 | 9.0 | 0.00 | 0.00 | 0.00 | 63 | 1014.5 |
| 20260902014005 | 75 | 247 | 3.0 | 8.0 | 0.00 | 0.00 | 0.00 | 57 | 1014.4 |
| 20260902013005 | 76 | 256 | 4.0 | 9.0 | 0.00 | 0.00 | 0.00 | 56 | 1014.3 |
| 20260902012005 | 77 | 270 | 3.0 | 8.0 | 0.00 | 0.00 | 0.00 | 54 | 1014.3 |
| 20260902011006 | 77 | 275 | 4.0 | 10.0 | 0.00 | 0.00 | 0.00 | 54 | 1014.2 |
| 20260902005005 | 79 | 262 | 3.0 | 7.0 | 0.00 | 0.00 | 0.00 | 49 | 1014.4 |
| 20260902004026 | 79 | 264 | 4.0 | 8.0 | 0.00 | 0.00 | 0.00 | 49 | 1014.4 |
| 20260902003005 | 79 | 267 | 3.0 | 11.0 | 0.00 | 0.00 | 0.00 | 49 | 1014.4 |
| 20260902002005 | 79 | 283 | 3.0 | 8.0 | 0.00 | 0.00 | 0.00 | 48 | 1014.5 |
| 20260902001005 | 78 | 258 | 5.0 | 9.0 | 0.00 | 0.00 | 0.00 | 50 | 1014.6 |
| 20260902000005 | 78 | 248 | 5.0 | 11.0 | 0.00 | 0.00 | 0.00 | 50 | 1014.6 |
| 20260901235005 | 79 | 250 | 4.0 | 12.0 | 0.00 | 0.00 | 0.00 | 51 | 1014.6 |
| 20260901234005 | 79 | 262 | 5.0 | 11.0 | 0.00 | 0.00 | 0.00 | 52 | 1014.7 |
| 20260901233005 | 79 | 261 | 5.0 | 14.0 | 0.00 | 0.00 | 0.00 | 53 | 1014.7 |
| 20260901232005 | 79 | 266 | 5.0 | 11.0 | 0.00 | 0.00 | 0.00 | 52 | 1014.8 |
| 20260901231005 | 80 | 259 | 4.0 | 11.0 | 0.00 | 0.00 | 0.00 | 52 | 1014.8 |
| 20260901230005 | 80 | 256 | 5.0 | 9.0 | 0.00 | 0.00 | 0.00 | 53 | 1015.0 |
| 20260901225005 | 79 | 244 | 6.0 | 11.0 | 0.00 | 0.00 | 0.00 | 54 | 1015.1 |
| 20260901224026 | 80 | 260 | 5.0 | 13.0 | 0.00 | 0.00 | 0.00 | 55 | 1015.0 |